Location: ????????
(55.6333°N, 37.7000°E)
Time: 07:05:33
(UTC+00:00)

Cosmos 1743 - Pass Details

Date: 19 May 2025
Orbit: 431 x 441 km, 82.5° (Epoch: 23 June)

Event Time Altitude Azimuth Distance (km) Brightness Sun altitude
Rises 18:41:04 0° 341° (NNW) 2,463 7.8 -6.8°
Reaches altitude 10° 18:43:16 10° 331° (NNW) 1,585 6.9 -7.0°
Maximum altitude 18:46:22 31° 268° (W) 806 4.1 -7.2°
Drops below altitude 10° 18:49:25 10° 204° (SSW) 1,567 4.9 -7.5°
Enters shadow 18:51:35 - 194° (SSW) 2,428 5.7 -7.7°
